Time,TemperatureF,DewpointF,PressureIn,WindDirection,WindDirectionDegrees,WindSpeedMPH,WindSpeedGustMPH,Humidity,HourlyPrecipIn,Conditions,Clouds,dailyrainin,SoftwareType,DateUTC
2013-03-19 00:02:00,14.0,8.0,29.98,WNW,292,14.0,35.0,77,0.00,,,0.00,,2013-03-19 05:02:00,
2013-03-19 00:12:00,14.0,8.0,29.98,WNW,292,14.0,35.0,77,0.00,,,0.00,,2013-03-19 05:12:00,
2013-03-19 00:22:00,13.0,7.0,29.98,WNW,290,19.0,32.0,78,0.00,,,0.00,,2013-03-19 05:22:00,
2013-03-19 00:32:00,13.0,7.0,29.98,WNW,298,15.0,33.0,78,0.00,,,0.00,,2013-03-19 05:32:00,
2013-03-19 00:42:00,13.0,7.0,29.98,WNW,298,15.0,33.0,78,0.00,,,0.00,,2013-03-19 05:42:00,
2013-03-19 00:52:00,13.0,8.0,29.98,NW,325,15.0,31.0,79,0.00,,,0.00,,2013-03-19 05:52:00,
2013-03-19 01:02:00,13.0,8.0,29.98,West,279,13.0,31.0,79,0.00,,,0.00,,2013-03-19 06:02:00,
2013-03-19 01:12:00,13.0,8.0,29.98,West,279,13.0,31.0,79,0.00,,,0.00,,2013-03-19 06:12:00,
2013-03-19 01:22:00,13.0,8.0,29.98,WNW,293,15.0,30.0,79,0.00,,,0.00,,2013-03-19 06:22:00,
2013-03-19 01:32:00,12.0,7.0,29.98,NNW,331,12.0,28.0,80,0.00,,,0.00,,2013-03-19 06:32:00,
2013-03-19 01:42:00,12.0,7.0,29.98,NNW,331,12.0,28.0,80,0.00,,,0.00,,2013-03-19 06:42:00,
2013-03-19 01:52:00,12.0,7.0,29.98,NW,304,12.0,30.0,80,0.00,,,0.00,,2013-03-19 06:52:00,
2013-03-19 02:02:00,12.0,7.0,29.98,WNW,290,14.0,30.0,80,0.00,,,0.00,,2013-03-19 07:02:00,
2013-03-19 02:12:00,12.0,7.0,29.98,WNW,290,14.0,30.0,80,0.00,,,0.00,,2013-03-19 07:12:00,
2013-03-19 02:21:00,12.0,7.0,29.98,WNW,303,12.0,29.0,80,0.00,,,0.00,,2013-03-19 07:21:00,
2013-03-19 02:32:00,12.0,7.0,29.99,WNW,298,11.0,31.0,80,0.00,,,0.00,,2013-03-19 07:32:00,
2013-03-19 02:42:00,12.0,7.0,29.99,WNW,298,11.0,31.0,80,0.00,,,0.00,,2013-03-19 07:42:00,
2013-03-19 02:52:00,12.0,7.0,29.99,WNW,292,13.0,30.0,80,0.00,,,0.00,,2013-03-19 07:52:00,
2013-03-19 03:02:00,11.0,6.0,30.00,NW,326,10.0,25.0,80,0.00,,,0.00,,2013-03-19 08:02:00,
2013-03-19 03:12:00,11.0,6.0,30.00,NW,326,10.0,25.0,80,0.00,,,0.00,,2013-03-19 08:12:00,
2013-03-19 03:22:00,11.0,6.0,30.01,West,280,13.0,24.0,80,0.00,,,0.00,,2013-03-19 08:22:00,
2013-03-19 03:32:00,11.0,6.0,30.02,WNW,293,9.0,26.0,80,0.00,,,0.00,,2013-03-19 08:32:00,
2013-03-19 03:42:00,11.0,6.0,30.02,WNW,293,9.0,26.0,80,0.00,,,0.00,,2013-03-19 08:42:00,
2013-03-19 03:52:00,11.0,6.0,30.02,West,281,8.0,27.0,80,0.00,,,0.00,,2013-03-19 08:52:00,
2013-03-19 04:02:00,11.0,6.0,30.03,WSW,241,12.0,24.0,80,0.00,,,0.00,,2013-03-19 09:02:00,
2013-03-19 04:12:00,11.0,6.0,30.03,WSW,241,12.0,24.0,80,0.00,,,0.00,,2013-03-19 09:12:00,
2013-03-19 04:22:00,11.0,6.0,30.04,West,278,8.0,25.0,80,0.00,,,0.00,,2013-03-19 09:22:00,
2013-03-19 04:32:00,11.0,6.0,30.04,WNW,290,8.0,19.0,80,0.00,,,0.00,,2013-03-19 09:32:00,
2013-03-19 04:42:00,11.0,6.0,30.04,WNW,290,8.0,19.0,80,0.00,,,0.00,,2013-03-19 09:42:00,
2013-03-19 04:53:00,11.0,6.0,30.05,West,271,9.0,25.0,80,0.00,,,0.00,,2013-03-19 09:53:00,
2013-03-19 05:03:00,11.0,6.0,30.05,West,262,7.0,25.0,80,0.00,,,0.00,,2013-03-19 10:03:00,
2013-03-19 05:12:00,11.0,6.0,30.05,West,262,7.0,25.0,80,0.00,,,0.00,,2013-03-19 10:12:00,
2013-03-19 05:23:00,11.0,6.0,30.04,WNW,298,10.0,24.0,80,0.00,,,0.00,,2013-03-19 10:23:00,
2013-03-19 05:32:00,11.0,6.0,30.04,West,281,9.0,30.0,80,0.00,,,0.00,,2013-03-19 10:32:00,
2013-03-19 05:42:00,11.0,6.0,30.04,West,281,9.0,30.0,80,0.00,,,0.00,,2013-03-19 10:42:00,
2013-03-19 05:53:00,11.0,6.0,30.04,West,277,10.0,25.0,79,0.00,,,0.00,,2013-03-19 10:53:00,
2013-03-19 06:02:00,11.0,6.0,30.05,West,280,9.0,23.0,79,0.00,,,0.00,,2013-03-19 11:02:00,
2013-03-19 06:12:00,11.0,6.0,30.05,West,280,9.0,23.0,79,0.00,,,0.00,,2013-03-19 11:12:00,
2013-03-19 06:22:00,11.0,6.0,30.06,NW,304,9.0,19.0,79,0.00,,,0.00,,2013-03-19 11:22:00,
2013-03-19 06:32:00,11.0,6.0,30.06,West,278,10.0,23.0,79,0.00,,,0.00,,2013-03-19 11:32:00,
2013-03-19 06:42:00,11.0,6.0,30.06,West,278,10.0,23.0,79,0.00,,,0.00,,2013-03-19 11:42:00,
2013-03-19 06:52:00,11.0,6.0,30.07,West,273,9.0,21.0,79,0.00,,,0.00,,2013-03-19 11:52:00,
2013-03-19 07:02:00,11.0,6.0,30.08,NW,306,10.0,21.0,79,0.00,,,0.00,,2013-03-19 12:02:00,
2013-03-19 07:12:00,11.0,6.0,30.08,NW,306,10.0,21.0,79,0.00,,,0.00,,2013-03-19 12:12:00,
2013-03-19 07:22:00,11.0,6.0,30.09,West,280,8.0,21.0,79,0.00,,,0.00,,2013-03-19 12:22:00,
2013-03-19 07:33:00,11.0,6.0,30.09,NW,304,8.0,16.0,79,0.00,,,0.00,,2013-03-19 12:33:00,
2013-03-19 07:42:00,11.0,6.0,30.09,NW,304,8.0,16.0,79,0.00,,,0.00,,2013-03-19 12:42:00,
2013-03-19 07:52:00,10.0,5.0,30.10,West,278,9.0,20.0,79,0.00,,,0.00,,2013-03-19 12:52:00,
2013-03-19 08:02:00,11.0,6.0,30.11,NW,306,7.0,18.0,79,0.00,,,0.00,,2013-03-19 13:02:00,
2013-03-19 08:12:00,11.0,6.0,30.11,NW,306,7.0,18.0,79,0.00,,,0.00,,2013-03-19 13:12:00,
2013-03-19 08:22:00,11.0,6.0,30.12,NW,314,8.0,25.0,78,0.00,,,0.00,,2013-03-19 13:22:00,
2013-03-19 08:32:00,12.0,6.0,30.12,WNW,296,8.0,19.0,77,0.00,,,0.00,,2013-03-19 13:32:00,
2013-03-19 08:42:00,12.0,6.0,30.12,WNW,296,8.0,19.0,77,0.00,,,0.00,,2013-03-19 13:42:00,
2013-03-19 08:53:00,12.0,6.0,30.14,WNW,301,11.0,23.0,76,0.00,,,0.00,,2013-03-19 13:53:00,
2013-03-19 09:02:00,12.0,6.0,30.14,West,278,11.0,26.0,75,0.00,,,0.00,,2013-03-19 14:02:00,
2013-03-19 09:12:00,12.0,6.0,30.14,West,278,11.0,26.0,75,0.00,,,0.00,,2013-03-19 14:12:00,
2013-03-19 09:22:00,13.0,6.0,30.14,NW,304,9.0,28.0,74,0.00,,,0.00,,2013-03-19 14:22:00,
2013-03-19 09:32:00,14.0,7.0,30.16,WNW,288,12.0,26.0,73,0.00,,,0.00,,2013-03-19 14:32:00,
2013-03-19 09:42:00,14.0,7.0,30.16,WNW,288,12.0,26.0,73,0.00,,,0.00,,2013-03-19 14:42:00,
2013-03-19 09:52:00,14.0,7.0,30.16,West,278,12.0,33.0,72,0.00,,,0.00,,2013-03-19 14:52:00,
2013-03-19 10:02:00,15.0,7.0,30.16,West,281,13.0,26.0,70,0.00,,,0.00,,2013-03-19 15:02:00,
2013-03-19 10:12:00,15.0,7.0,30.16,West,281,13.0,26.0,70,0.00,,,0.00,,2013-03-19 15:12:00,
2013-03-19 10:22:00,15.0,7.0,30.16,West,281,10.0,29.0,70,0.00,,,0.00,,2013-03-19 15:22:00,
2013-03-19 10:33:00,16.0,8.0,30.17,WNW,301,11.0,25.0,70,0.00,,,0.00,,2013-03-19 15:33:00,
2013-03-19 10:43:00,16.0,8.0,30.17,WNW,301,11.0,25.0,70,0.00,,,0.00,,2013-03-19 15:43:00,
2013-03-19 10:53:00,16.0,8.0,30.17,West,277,11.0,25.0,70,0.00,,,0.00,,2013-03-19 15:53:00,
2013-03-19 11:03:00,16.0,8.0,30.17,WNW,293,11.0,25.0,69,0.00,,,0.00,,2013-03-19 16:03:00,
2013-03-19 11:13:00,16.0,8.0,30.17,WNW,293,11.0,25.0,69,0.00,,,0.00,,2013-03-19 16:13:00,
2013-03-19 11:24:00,18.0,10.0,30.17,NW,321,8.0,27.0,70,0.00,,,0.00,,2013-03-19 16:24:00,
2013-03-19 11:34:00,18.0,10.0,30.17,WNW,286,8.0,32.0,71,0.00,,,0.00,,2013-03-19 16:34:00,
2013-03-19 11:44:00,18.0,10.0,30.17,WNW,286,8.0,32.0,71,0.00,,,0.00,,2013-03-19 16:44:00,
2013-03-19 11:54:00,18.0,10.0,30.18,West,269,14.0,29.0,69,0.00,,,0.00,,2013-03-19 16:54:00,
2013-03-19 12:03:00,19.0,11.0,30.17,WNW,286,10.0,28.0,69,0.00,,,0.00,,2013-03-19 17:03:00,
2013-03-19 12:13:00,19.0,11.0,30.17,WNW,286,10.0,28.0,69,0.00,,,0.00,,2013-03-19 17:13:00,
2013-03-19 12:23:00,20.0,11.0,30.18,West,268,13.0,23.0,69,0.00,,,0.00,,2013-03-19 17:23:00,
2013-03-19 12:34:00,20.0,11.0,30.17,NW,321,11.0,24.0,66,0.00,,,0.00,,2013-03-19 17:34:00,
2013-03-19 12:44:00,20.0,11.0,30.17,NW,321,11.0,24.0,66,0.00,,,0.00,,2013-03-19 17:44:00,
2013-03-19 12:53:00,21.0,12.0,30.18,WNW,286,7.0,27.0,67,0.00,,,0.00,,2013-03-19 17:53:00,
2013-03-19 13:03:00,21.0,10.0,30.19,WNW,290,14.0,23.0,61,0.00,,,0.00,,2013-03-19 18:03:00,
2013-03-19 13:13:00,21.0,10.0,30.19,WNW,290,14.0,23.0,61,0.00,,,0.00,,2013-03-19 18:13:00,
2013-03-19 13:23:00,21.0,11.0,30.19,NNW,327,8.0,21.0,65,0.00,,,0.00,,2013-03-19 18:23:00,
2013-03-19 13:33:00,21.0,10.0,30.19,NW,308,10.0,21.0,63,0.00,,,0.00,,2013-03-19 18:33:00,
2013-03-19 13:43:00,21.0,10.0,30.19,NW,308,10.0,21.0,63,0.00,,,0.00,,2013-03-19 18:43:00,
2013-03-19 13:53:00,21.0,11.0,30.19,WNW,288,8.0,23.0,65,0.00,,,0.00,,2013-03-19 18:53:00,
2013-03-19 14:02:00,22.0,12.0,30.18,NNW,348,9.0,25.0,64,0.00,,,0.00,,2013-03-19 19:02:00,
2013-03-19 14:12:00,22.0,12.0,30.18,NNW,348,9.0,25.0,64,0.00,,,0.00,,2013-03-19 19:12:00,
2013-03-19 14:22:00,23.0,12.0,30.19,WNW,295,9.0,21.0,63,0.00,,,0.00,,2013-03-19 19:22:00,
2013-03-19 14:32:00,23.0,12.0,30.19,WNW,285,8.0,22.0,61,0.00,,,0.00,,2013-03-19 19:32:00,
2013-03-19 14:42:00,23.0,12.0,30.19,WNW,285,8.0,22.0,61,0.00,,,0.00,,2013-03-19 19:42:00,
2013-03-19 14:53:00,24.0,13.0,30.18,West,269,7.0,22.0,61,0.00,,,0.00,,2013-03-19 19:53:00,
2013-03-19 15:02:00,24.0,13.0,30.18,West,281,9.0,22.0,61,0.00,,,0.00,,2013-03-19 20:02:00,
2013-03-19 15:12:00,24.0,13.0,30.18,WNW,286,10.0,22.0,61,0.00,,,0.00,,2013-03-19 20:12:00,
2013-03-19 15:22:00,24.0,13.0,30.18,WNW,286,10.0,22.0,61,0.00,,,0.00,,2013-03-19 20:22:00,
2013-03-19 15:32:00,24.0,13.0,30.18,WNW,284,10.0,22.0,61,0.00,,,0.00,,2013-03-19 20:32:00,
2013-03-19 15:42:00,24.0,13.0,30.18,WNW,284,10.0,22.0,61,0.00,,,0.00,,2013-03-19 20:42:00,
2013-03-19 15:53:00,25.0,15.0,30.19,West,281,8.0,27.0,64,0.00,,,0.00,,2013-03-19 20:53:00,
2013-03-19 16:02:00,24.0,14.0,30.19,WNW,295,8.0,22.0,66,0.00,,,0.00,,2013-03-19 21:02:00,
2013-03-19 16:12:00,24.0,14.0,30.19,WNW,295,8.0,22.0,66,0.00,,,0.00,,2013-03-19 21:12:00,
2013-03-19 16:22:00,25.0,15.0,30.19,NW,325,6.0,24.0,66,0.00,,,0.00,,2013-03-19 21:22:00,
2013-03-19 16:33:00,25.0,14.0,30.19,WNW,286,9.0,25.0,63,0.00,,,0.00,,2013-03-19 21:33:00,
2013-03-19 16:43:00,25.0,14.0,30.19,WNW,286,9.0,25.0,63,0.00,,,0.00,,2013-03-19 21:43:00,
2013-03-19 16:53:00,25.0,15.0,30.20,NW,322,12.0,25.0,65,0.00,,,0.00,,2013-03-19 21:53:00,
2013-03-19 17:03:00,25.0,15.0,30.20,NW,322,12.0,25.0,65,0.00,,,0.00,,2013-03-19 22:03:00,
2013-03-19 17:12:00,25.0,15.0,30.20,NW,322,12.0,25.0,65,0.00,,,0.00,,2013-03-19 22:12:00,
2013-03-19 17:23:00,25.0,15.0,30.20,NW,322,12.0,25.0,65,0.00,,,0.00,,2013-03-19 22:23:00,